Theta_e
314 313 313 312 312 312 311 312 312 312 312 313 312 312 313 313 313 305 303 307 310 319 312 299 299 296 297 297 299 302 294 291 294 295 298 298 295 297 297 298 296 296 295 296 299
314 313 312 312 312 311 311 311 311 311 311 312 312 312 313 313 303 300 309 317 320 321 300 297 295 295 292 295 297 298 292 294 299 299 299 299 296 295 295 294 293 293 294 296 299
316 314 313 312 311 310 310 310 310 311 311 311 311 311 312 309 298 297 315 317 321 316 299 298 296 296 291 292 294 296 295 298 300 302 299 298 298 295 296 295 297 295 294 294 296
317 314 313 312 310 310 310 310 310 310 311 311 311 311 311 302 282 294 312 318 317 302 298 296 293 291 290 289 292 292 297 300 301 301 296 295 295 296 297 301 298 300 295 293 294
317 314 313 311 311 309 309 309 309 309 310 310 311 311 303 296 296 299 311 308 302 298 295 293 291 291 288 290 291 291 292 296 299 299 296 297 294 293 294 298 294 294 294 293 294
318 315 312 312 311 310 309 309 309 309 309 310 310 310 297 288 298 297 296 296 295 295 293 293 292 293 290 290 290 290 291 291 294 296 296 295 292 295 299 299 296 293 292 292 293
318 315 313 312 311 310 309 309 309 308 308 309 309 307 297 292 294 292 293 292 293 293 291 293 293 292 291 289 291 290 287 288 289 292 292 293 288 290 297 295 297 293 291 291 292
317 315 313 312 312 310 310 310 309 309 308 307 309 304 290 301 296 290 291 291 292 293 293 295 295 292 291 291 288 285 284 282 286 289 290 292 285 291 291 291 292 293 292 290 291
312 315 314 312 312 310 309 309 309 309 308 308 302 297 289 300 289 291 290 290 291 291 292 296 294 289 288 284 281 281 278 279 283 287 287 287 282 288 288 289 289 290 290 290 291
309 312 314 313 312 310 309 308 307 306 304 305 301 287 291 288 289 290 289 291 289 290 290 289 287 283 282 282 278 280 278 279 280 283 284 283 283 286 288 286 288 288 289 290 291
307 308 311 313 312 308 304 298 291 289 291 288 289 286 286 287 289 288 290 290 290 287 281 285 281 279 282 286 282 280 279 279 280 284 283 282 284 285 287 284 285 287 287 288 290
307 308 309 313 310 305 300 294 289 289 281 288 288 292 292 287 284 286 291 286 285 281 283 282 279 283 285 285 283 280 279 278 280 282 282 279 281 282 284 285 286 288 287 288 289
309 309 308 312 306 301 296 296 296 293 282 284 287 286 287 288 285 285 288 286 283 281 282 279 280 284 284 282 282 280 280 279 279 279 279 276 278 278 281 283 285 285 288 288 285
309 309 310 306 300 296 294 297 295 293 274 278 283 285 285 287 282 289 289 287 284 281 282 281 283 281 281 280 282 278 281 281 280 278 274 275 272 275 280 281 281 284 280 282 282
308 312 310 305 296 293 296 296 294 290 265 281 279 287 286 283 282 283 287 286 282 282 282 279 279 279 280 280 283 280 282 281 279 276 273 272 272 273 276 279 283 281 281 281 281
306 309 307 300 297 295 295 294 293 275 266 275 279 279 279 282 281 283 284 288 286 282 282 280 280 280 281 280 283 282 279 279 276 274 266 272 274 274 276 280 279 279 280 281 280
302 301 300 298 292 296 296 292 274 269 277 274 275 278 278 278 279 279 279 278 277 275 276 278 277 278 280 278 281 280 278 273 270 265 267 271 272 278 280 280 280 279 280 281 280
302 298 296 293 294 297 292 282 268 270 272 280 278 277 275 277 277 278 276 275 278 278 275 276 274 277 280 279 279 277 279 274 268 267 269 272 270 275 280 279 280 281 279 279 279
300 291 290 291 294 294 285 274 269 275 280 278 278 275 271 277 277 276 275 275 278 278 275 274 275 276 277 277 279 277 275 279 272 267 266 271 274 279 279 278 278 279 279 280 280
288 289 287 292 293 290 281 277 277 281 281 280 274 278 269 273 275 275 275 278 278 280 281 279 273 274 275 277 276 277 278 273 273 265 263 270 270 274 276 277 277 278 278 280 280
286 278 287 292 292 284 274 269 275 283 284 280 277 275 276 277 275 274 277 279 280 280 281 279 278 272 275 273 274 274 274 274 275 274 270 266 271 277 278 278 277 278 279 280 279
275 267 285 291 279 273 269 273 283 280 283 282 281 279 277 278 274 274 276 280 282 281 278 280 278 270 271 272 273 273 275 275 273 270 270 270 271 277 278 278 279 279 281 279 280
267 274 287 288 267 265 272 277 281 280 280 279 279 282 281 279 276 277 279 279 280 280 278 280 275 269 272 272 272 270 273 276 276 275 270 270 273 277 277 278 279 280 280 280 279
271 270 274 282 281 277 272 270 274 280 280 281 280 281 280 277 280 277 279 281 280 280 285 284 275 271 269 271 272 270 272 275 275 270 271 273 273 275 276 278 279 281 278 278 279
274 268 276 267 266 275 275 273 272 271 280 281 277 279 275 274 275 276 278 280 281 282 280 281 274 267 271 274 272 272 271 273 274 275 273 275 275 277 278 279 281 281 279 280 278
269 267 265 274 270 270 273 267 272 274 273 271 274 275 274 273 275 272 276 276 276 278 277 277 271 270 266 275 274 272 272 272 275 276 275 275 274 278 279 281 282 280 280 280 278
275 273 273 269 261 264 265 271 275 274 273 278 275 273 271 275 278 278 279 280 279 276 276 276 273 271 267 274 274 271 274 270 272 272 274 271 276 280 279 282 283 281 280 279 277
Wind_Speed
11 11 12 12 13 15 15 15 16 15 17 16 14 15 16 16 17 5 10 11 10 9 5 3 3 3 2 3 4 5 2 5 7 7 7 3 4 2 2 3 3 3 1 6 12
12 11 12 12 14 14 15 16 16 16 16 17 16 14 16 17 8 10 12 13 12 10 6 7 5 6 2 4 4 5 5 9 7 6 5 3 6 6 4 4 4 4 2 4 14
14 13 12 12 13 15 15 16 16 16 17 16 16 14 13 10 5 10 6 18 12 8 2 6 3 6 4 4 5 6 10 5 4 6 3 3 3 6 7 8 8 10 6 8 9
13 12 12 12 12 13 14 15 16 16 16 17 15 15 12 1 8 3 3 6 8 5 4 5 4 5 6 7 6 4 9 6 4 5 4 5 4 4 8 10 3 8 7 11 15
13 12 12 13 13 12 13 14 15 16 16 16 14 13 5 4 12 2 4 4 3 6 7 6 6 6 7 6 4 6 5 5 8 6 5 4 6 6 14 8 1 3 8 13 14
14 13 13 14 15 14 13 15 14 14 15 15 13 10 1 9 4 6 6 4 3 5 6 7 7 7 5 6 7 3 4 5 6 6 5 6 2 4 15 7 9 7 11 11 16
15 14 14 15 14 15 15 15 18 14 14 14 11 6 9 19 4 3 7 5 4 4 5 5 3 5 5 2 4 1 4 4 7 5 6 6 4 12 16 3 9 11 9 9 13
16 13 15 14 15 15 15 17 18 18 14 12 10 4 11 7 6 6 4 3 3 5 3 3 4 5 3 2 3 3 2 4 3 9 5 9 12 15 5 7 13 11 10 10 13
20 14 15 13 14 14 15 19 21 19 15 9 4 3 12 7 4 6 5 4 3 3 2 1 3 5 2 4 2 2 5 8 6 9 5 8 4 11 1 5 11 9 10 9 11
21 18 18 15 13 11 14 20 20 11 6 2 2 2 5 4 3 2 3 5 3 5 3 3 3 3 1 6 12 10 7 5 6 5 4 5 12 10 7 4 11 10 9 9 12
20 19 18 15 13 4 7 5 3 2 3 10 8 5 4 3 2 1 2 4 3 3 7 4 5 15 14 19 4 4 6 8 4 5 4 9 13 12 10 6 11 15 14 15 18
21 18 17 19 8 3 2 1 3 3 11 12 19 17 9 1 4 5 6 6 6 7 6 3 19 11 5 6 6 3 4 7 4 3 4 5 17 10 9 10 12 18 15 20 13
21 16 14 11 10 4 3 2 3 1 6 8 8 6 6 12 10 7 11 5 5 7 12 12 4 9 14 6 10 9 14 8 5 2 3 3 12 7 8 9 10 11 20 12 9
20 18 17 15 3 3 2 5 3 3 4 8 4 4 2 4 6 3 7 5 5 12 5 10 5 4 6 16 11 12 9 6 3 5 6 0 11 5 6 8 6 12 3 9 9
22 10 21 6 5 1 3 2 1 2 5 2 1 3 1 5 2 2 2 1 6 9 6 10 4 6 7 8 12 6 5 7 5 4 2 3 2 5 1 7 14 5 4 6 7
25 10 11 4 3 2 3 2 1 5 10 7 3 1 2 2 2 2 3 6 2 2 3 5 2 3 2 3 6 8 6 6 4 3 2 9 8 7 6 11 3 1 5 7 9
16 18 7 4 3 6 3 1 2 5 6 8 3 2 4 3 4 7 6 7 7 5 10 3 4 1 2 6 4 2 7 1 2 1 9 1 4 15 7 6 5 4 4 8 8
9 7 5 5 7 5 5 1 5 5 7 4 3 1 4 5 5 4 5 5 7 2 3 13 10 9 6 5 11 7 7 7 7 5 4 4 10 10 3 1 5 6 4 2 5
13 3 3 5 7 4 1 4 7 4 5 6 6 4 5 3 3 3 5 5 7 13 10 5 6 2 3 2 4 7 8 4 4 1 3 6 8 10 5 3 4 7 5 7 7
2 1 2 6 6 1 2 6 4 2 5 6 4 3 3 4 1 2 5 3 4 11 3 3 3 2 2 1 1 3 4 6 1 4 5 5 6 9 4 9 7 6 7 7 6
3 4 2 5 2 1 4 7 4 3 1 3 3 5 3 3 3 3 5 5 4 3 6 2 3 1 2 6 7 3 3 1 3 3 7 2 9 7 9 11 11 8 7 7 2
3 3 3 3 1 2 3 5 3 5 4 6 5 7 6 2 4 4 7 5 4 3 4 3 2 5 8 1 2 2 5 6 5 6 2 3 10 6 8 12 9 8 7 2 4
1 4 1 2 2 3 5 5 3 3 4 3 4 4 0 3 5 5 3 1 4 3 2 2 3 2 3 4 4 3 5 3 3 2 6 7 7 6 6 7 6 9 5 2 5
3 5 4 1 1 3 3 5 5 3 6 4 4 4 4 5 8 4 2 2 5 5 7 5 3 6 7 4 3 4 5 7 5 4 5 11 4 4 4 6 6 5 3 4 4
1 6 2 4 5 5 2 2 5 4 4 3 4 4 2 4 3 3 4 6 4 6 4 4 4 1 4 4 2 3 4 8 13 15 9 13 14 7 10 7 6 6 3 2 3
5 3 4 3 2 3 4 4 4 5 1 6 3 9 5 4 2 4 4 2 4 4 2 1 4 1 4 5 5 5 8 9 17 18 17 14 22 8 7 3 4 4 4 8 7
2 1 6 4 3 3 5 6 2 2 5 2 2 4 6 6 4 10 9 9 8 3 2 3 3 1 6 4 5 9 18 10 5 5 8 15 16 4 4 4 5 6 2 3 4
Wind_Direction
313 316 316 319 317 319 320 317 316 317 313 311 313 314 311 311 317 304 238 227 197 197 148 131 142 174 109 227 185 137 167 231 208 180 233 156 183 166 138 123 244 211 208 314 147
303 305 310 315 317 314 316 315 315 314 316 311 314 315 315 318 302 245 233 236 219 160 156 180 190 148 193 219 202 167 185 224 203 206 219 206 180 179 145 194 246 278 278 81 146
290 291 298 308 312 312 310 313 314 313 315 312 312 312 315 335 293 245 297 221 184 175 205 170 130 153 202 174 212 196 226 198 237 230 207 222 195 166 143 237 214 208 192 165 169
270 278 283 292 301 306 303 306 307 309 314 311 310 312 317 43 254 334 27 163 166 149 155 150 155 176 200 204 212 211 239 190 225 215 166 213 134 196 193 226 174 240 170 170 184
256 255 267 275 280 289 290 295 302 306 309 306 306 310 346 246 249 240 147 156 127 145 184 177 169 168 190 197 204 222 238 203 234 223 225 138 207 206 248 226 200 113 164 187 197
253 251 255 262 272 281 290 291 292 300 303 302 296 301 268 254 243 164 146 129 187 173 189 173 207 209 215 214 179 231 225 239 229 227 209 188 228 136 259 176 220 196 207 202 204
264 236 248 266 276 284 297 299 297 293 295 294 291 286 245 247 345 193 169 195 180 198 188 199 198 201 167 255 215 187 277 291 235 205 223 129 250 230 250 157 236 229 227 219 221
311 229 241 259 272 279 289 300 296 294 291 287 279 254 252 248 268 239 176 243 191 198 247 181 181 206 205 245 24 190 143 250 239 165 222 144 255 257 219 193 243 243 237 224 226
341 265 247 252 261 276 290 299 294 293 281 263 264 203 261 309 238 224 176 202 169 174 210 347 149 194 135 131 356 258 222 222 310 192 126 184 243 257 96 197 262 258 252 236 246
324 326 260 246 255 268 299 302 294 285 270 240 201 341 269 259 261 207 194 163 177 129 105 151 62 196 168 152 213 212 214 240 209 206 155 219 253 284 264 223 250 268 266 254 246
316 308 302 280 247 273 336 341 354 266 262 202 191 231 293 290 272 244 174 127 120 125 173 197 166 214 195 202 193 183 204 201 224 203 159 224 251 244 257 234 255 256 258 251 243
314 300 298 303 175 91 64 351 93 290 296 243 251 237 243 129 297 247 133 175 174 196 135 114 231 215 188 220 212 179 186 232 277 218 185 278 265 235 245 242 224 243 248 248 259
326 305 289 284 124 95 151 181 245 214 262 274 210 217 202 180 230 225 160 157 188 195 196 194 208 189 186 183 204 222 227 229 219 64 235 305 277 234 264 257 268 251 248 277 262
335 314 297 126 121 171 212 159 187 122 305 274 222 252 153 173 227 208 203 160 192 219 167 244 212 139 178 219 184 229 191 168 172 119 235 178 284 280 234 255 271 263 278 262 269
351 329 128 39 117 284 39 146 54 71 328 294 260 327 147 184 115 37 9 64 193 174 155 232 201 182 184 211 176 232 133 164 149 162 42 230 266 260 138 259 255 340 351 310 298
4 5 122 82 104 16 352 109 95 44 255 313 335 302 163 216 160 106 80 43 83 347 186 248 282 248 246 73 152 151 84 65 67 118 312 186 164 250 193 219 120 96 327 329 331
15 33 29 5 24 321 302 18 50 193 336 302 327 10 300 227 238 174 165 174 184 166 210 146 201 229 186 89 51 164 126 152 317 14 229 239 179 248 269 222 182 117 41 357 344
7 46 46 48 343 328 45 107 187 226 251 320 322 306 216 173 248 226 158 210 233 167 5 211 241 174 180 207 168 188 167 159 205 208 220 117 227 251 250 226 144 131 136 128 34
335 357 33 352 356 354 164 196 216 245 331 312 297 259 298 279 226 199 235 210 208 184 188 167 238 5 45 346 121 175 209 127 120 10 49 213 279 296 188 108 114 147 104 71 44
6 355 20 330 333 12 258 246 252 294 350 329 266 165 277 309 283 208 217 227 225 198 153 226 277 42 352 302 54 157 167 159 278 161 224 256 268 234 172 176 172 166 121 82 60
29 357 325 329 256 260 226 236 258 180 121 256 269 292 277 276 221 216 264 295 317 351 181 130 145 31 37 207 177 156 186 246 148 168 186 240 256 228 181 168 166 166 138 107 108
45 357 301 312 253 264 245 209 286 270 203 258 239 227 224 290 279 244 222 225 342 315 166 222 196 189 205 359 358 325 209 169 155 205 224 156 262 329 162 156 146 142 124 93 353
355 263 288 296 228 285 294 284 253 263 231 245 274 251 281 267 262 235 237 340 21 50 300 249 250 78 297 356 3 215 199 179 124 89 202 162 258 359 109 128 132 135 118 320 334
50 313 316 276 70 270 273 270 272 233 264 244 271 254 256 241 222 283 279 325 19 30 343 316 211 218 210 185 118 193 208 175 140 189 187 234 101 248 230 148 152 152 215 258 240
96 244 254 300 299 272 318 204 291 305 242 270 305 252 267 286 271 247 4 314 246 329 168 230 259 194 274 253 161 225 192 195 201 219 202 261 232 218 224 204 203 198 109 19 35
158 161 345 249 337 260 252 263 241 292 269 278 255 343 343 295 290 292 348 20 295 15 351 352 278 135 278 214 183 262 251 204 215 226 241 276 271 208 265 272 356 351 10 27 17
203 256 119 229 171 126 223 225 276 141 293 56 73 345 324 285 296 280 263 242 241 263 265 240 211 194 255 211 160 264 232 195 196 216 196 224 244 181 206 226 253 276 106 85 28